GW4332 Weather Reports


Display with metric or nautical units.
time (UTC)temp
F
wind
direction
speed
MPH
gust
MPH
rain 1hr
in
rain 24hr
in
rain mn
in
humidity
%
barometer
mb
20260508025030 49 356 0.0 8.0 0.00 0.00 0.00 82 1017.8
20260508024029 49 120 1.0 9.0 0.00 0.00 0.00 81 1017.8
20260508023030 49 86 2.0 11.0 0.00 0.00 0.00 81 1017.8
20260508022029 49 136 1.0 10.0 0.00 0.00 0.00 81 1017.8
20260508021029 49 115 2.0 12.0 0.00 0.00 0.00 81 1017.8
20260508020030 50 106 2.0 11.0 0.00 0.00 0.00 80 1017.6
20260508015029 50 124 2.0 10.0 0.00 0.00 0.00 80 1017.7
20260508014030 50 142 2.0 10.0 0.00 0.00 0.00 79 1017.8
20260508013030 50 136 2.0 11.0 0.00 0.00 0.00 79 1017.8
20260508012030 50 144 1.0 14.0 0.00 0.00 0.00 79 1017.8
20260508011029 50 120 2.0 12.0 0.00 0.00 0.00 78 1017.9
20260508010030 50 115 3.0 11.0 0.00 0.00 0.00 78 1018.0
20260508005030 50 120 2.0 12.0 0.00 0.00 0.00 78 1018.0
20260508004030 50 143 2.0 9.0 0.00 0.00 0.00 78 1017.8
20260508003029 50 127 2.0 9.0 0.00 0.00 0.00 77 1017.9
20260508002030 50 102 2.0 8.0 0.00 0.00 0.00 77 1017.9
20260508001029 51 123 2.0 9.0 0.00 0.00 0.00 76 1017.9
20260508000030 51 117 2.0 10.0 0.00 0.00 0.00 75 1017.8
20260507235030 51 129 1.0 9.0 0.00 0.00 0.00 75 1017.9
20260507234029 51 123 1.0 7.0 0.00 0.00 0.00 74 1017.9
20260507233030 51 105 1.0 9.0 0.00 0.00 0.00 74 1017.9
20260507232029 52 88 2.0 10.0 0.00 0.00 0.00 73 1017.9
20260507231030 52 136 2.0 10.0 0.00 0.00 0.00 73 1017.9
20260507230030 52 267 1.0 13.0 0.00 0.00 0.00 72 1017.9
20260507225029 53 95 2.0 12.0 0.00 0.00 0.00 71 1017.9
20260507224030 53 139 2.0 12.0 0.00 0.00 0.00 71 1017.8
20260507223029 53 135 2.0 12.0 0.00 0.00 0.00 70 1017.9
20260507222030 54 89 4.0 13.0 0.00 0.00 0.00 69 1017.9
20260507221030 54 126 2.0 13.0 0.00 0.00 0.00 69 1017.8
20260507220029 55 93 6.0 13.0 0.00 0.00 0.00 69 1017.8
20260507215030 55 110 3.0 11.0 0.00 0.00 0.00 68 1017.8
20260507214029 55 107 4.0 10.0 0.00 0.00 0.00 68 1017.8
20260507213030 55 183 1.0 10.0 0.00 0.00 0.00 68 1017.8
20260507212030 55 132 3.0 12.0 0.00 0.00 0.00 68 1017.7
20260507211030 56 132 3.0 13.0 0.00 0.00 0.00 69 1017.7
20260507210029 56 124 2.0 13.0 0.00 0.00 0.00 70 1017.7
20260507205030 56 101 5.0 11.0 0.00 0.00 0.00 70 1017.7
20260507204029 55 107 5.0 10.0 0.00 0.00 0.00 70 1017.6
20260507203030 55 87 5.0 9.0 0.00 0.00 0.00 69 1017.5
20260507202029 55 80 6.0 10.0 0.00 0.00 0.00 69 1017.5
20260507201030 56 78 5.0 9.0 0.00 0.00 0.00 69 1017.2
20260507200029 56 69 5.0 12.0 0.00 0.00 0.00 68 1017.1
20260507195030 56 59 5.0 10.0 0.00 0.00 0.00 68 1017.1
20260507194029 56 66 5.0 9.0 0.00 0.00 0.00 67 1017.0
20260507193030 56 52 6.0 10.0 0.00 0.00 0.00 66 1016.9
20260507192030 57 45 6.0 11.0 0.00 0.00 0.00 66 1016.8
20260507191029 57 37 8.0 12.0 0.00 0.00 0.00 64 1016.8
20260507190029 57 45 8.0 12.0 0.00 0.00 0.00 62 1016.7
20260507185030 58 38 8.0 12.0 0.00 0.00 0.00 61 1016.6
20260507184030 58 43 8.0 12.0 0.00 0.00 0.00 61 1016.5
20260507183029 58 47 8.0 14.0 0.00 0.00 0.00 62 1016.4
20260507182030 58 36 6.0 11.0 0.00 0.00 0.00 66 1016.4
20260507181029 58 33 8.0 15.0 0.00 0.00 0.00 65 1016.3
20260507180030 58 38 6.0 13.0 0.00 0.00 0.00 65 1016.3
20260507175029 59 23 6.0 12.0 0.00 0.00 0.00 62 1016.3
20260507174030 59 28 8.0 14.0 0.00 0.00 0.00 60 1016.3
20260507173030 59 23 7.0 12.0 0.00 0.00 0.00 58 1016.1
20260507172029 59 357 7.0 13.0 0.00 0.00 0.00 59 1016.1
20260507171030 59 20 7.0 11.0 0.00 0.00 0.00 58 1016.3
20260507170029 60 353 9.0 13.0 0.00 0.00 0.00 59 1016.2
20260507165029 60 352 6.0 10.0 0.00 0.00 0.00 57 1016.1
20260507164030 60 344 8.0 11.0 0.00 0.00 0.00 57 1016.1
20260507163030 60 336 7.0 10.0 0.00 0.00 0.00 57 1016.1
20260507162029 60 349 7.0 11.0 0.00 0.00 0.00 57 1016.1
20260507161030 60 15 7.0 12.0 0.00 0.00 0.00 57 1016.0
20260507160029 60 352 6.0 12.0 0.00 0.00 0.00 57 1016.0
20260507155030 60 356 6.0 11.0 0.00 0.00 0.00 56 1016.0
20260507154030 60 348 8.0 13.0 0.00 0.00 0.00 58 1016.1
20260507153030 60 340 9.0 12.0 0.00 0.00 0.00 57 1016.1
20260507152029 60 343 9.0 12.0 0.00 0.00 0.00 57 1016.1
20260507151030 60 335 9.0 13.0 0.00 0.00 0.00 61 1016.0
20260507150030 60 327 11.0 15.0 0.00 0.00 0.00 58 1016.1
20260507145029 60 336 11.0 15.0 0.00 0.00 0.00 64 1016.0
20260507144030 60 327 11.0 14.0 0.00 0.00 0.00 66 1016.1
20260507143029 60 325 12.0 15.0 0.00 0.00 0.00 69 1016.2
20260507142030 59 323 12.0 14.0 0.00 0.00 0.00 68 1016.0
20260507141029 59 324 13.0 15.0 0.00 0.00 0.00 69 1016.1
20260507140030 59 320 13.0 16.0 0.00 0.00 0.00 70 1016.1
20260507135029 59 327 13.0 16.0 0.00 0.00 0.00 71 1016.1
20260507134030 59 324 13.0 16.0 0.00 0.00 0.00 72 1016.1
20260507133030 58 325 13.0 16.0 0.00 0.00 0.00 73 1016.2
20260507132030 58 318 12.0 15.0 0.00 0.00 0.00 73 1016.1
20260507131030 58 327 12.0 16.0 0.00 0.00 0.00 73 1016.0
20260507130030 58 320 12.0 15.0 0.00 0.00 0.00 74 1016.1
20260507125030 58 319 12.0 15.0 0.00 0.00 0.00 73 1016.1
20260507124030 57 317 13.0 16.0 0.00 0.00 0.00 74 1016.1
20260507123030 57 323 13.0 16.0 0.00 0.00 0.00 74 1016.2
20260507122029 56 322 13.0 15.0 0.00 0.00 0.00 75 1016.1
20260507121030 56 323 13.0 16.0 0.00 0.00 0.00 75 1016.1
20260507120030 56 323 12.0 14.0 0.00 0.00 0.00 74 1016.1
20260507115030 56 322 11.0 14.0 0.00 0.00 0.00 75 1016.1
20260507114029 55 329 11.0 15.0 0.00 0.00 0.00 75 1016.1
20260507113030 55 323 11.0 14.0 0.00 0.00 0.00 75 1016.1
20260507112029 55 324 12.0 14.0 0.00 0.00 0.00 76 1016.1
20260507111029 55 321 11.0 14.0 0.00 0.00 0.00 76 1016.1
20260507110030 55 320 11.0 14.0 0.00 0.00 0.00 74 1016.2
20260507105029 54 334 10.0 12.0 0.00 0.00 0.00 72 1016.1
20260507104030 54 339 9.0 12.0 0.00 0.00 0.00 72 1016.2
20260507103030 54 324 9.0 12.0 0.00 0.00 0.00 74 1016.3
20260507102031 53 320 9.0 12.0 0.00 0.00 0.00 75 1016.2
20260507101029 53 328 9.0 12.0 0.00 0.00 0.00 75 1016.1
20260507100030 53 334 9.0 12.0 0.00 0.00 0.00 75 1016.1
20260507095029 52 331 9.0 11.0 0.00 0.00 0.00 76 1016.0
20260507094030 52 337 8.0 12.0 0.00 0.00 0.00 77 1016.0
20260507093030 52 332 7.0 12.0 0.00 0.00 0.00 76 1015.9
20260507092029 51 349 6.0 11.0 0.00 0.00 0.00 77 1015.9
20260507091029 51 348 7.0 13.0 0.00 0.00 0.00 77 1015.9
20260507090030 51 343 7.0 12.0 0.00 0.00 0.00 78 1015.8
20260507085029 51 336 8.0 11.0 0.00 0.00 0.00 78 1015.7
20260507084030 51 347 6.0 10.0 0.00 0.00 0.00 78 1015.7
20260507083030 50 338 7.0 10.0 0.00 0.00 0.00 78 1015.7
20260507082029 50 325 7.0 11.0 0.00 0.00 0.00 78 1015.6
20260507081030 51 332 6.0 10.0 0.00 0.00 0.00 78 1015.6
20260507080030 51 348 5.0 10.0 0.00 0.00 0.00 77 1015.6
20260507075030 51 346 6.0 10.0 0.00 0.00 0.00 76 1015.5
20260507074029 51 21 6.0 10.0 0.00 0.00 0.00 75 1015.4
20260507073030 51 22 5.0 11.0 0.00 0.00 0.00 75 1015.3
20260507072029 51 34 7.0 12.0 0.00 0.00 0.00 75 1015.3
20260507071030 51 31 6.0 11.0 0.00 0.00 0.00 75 1015.2
20260507070030 50 33 6.0 11.0 0.00 0.00 0.00 74 1015.2
20260507065029 50 30 6.0 12.0 0.00 0.00 0.00 74 1015.2
20260507064030 50 22 7.0 13.0 0.00 0.00 0.00 73 1015.1
20260507063029 50 37 7.0 12.0 0.00 0.00 0.00 72 1015.1
20260507062030 50 46 7.0 13.0 0.00 0.00 0.00 71 1015.0
20260507061030 50 37 7.0 13.0 0.00 0.00 0.00 72 1015.0
20260507060029 50 41 7.0 12.0 0.00 0.00 0.00 73 1015.0
20260507055030 50 50 7.0 12.0 0.00 0.00 0.00 74 1014.8
20260507054029 50 49 6.0 12.0 0.00 0.00 0.00 75 1014.8
20260507053030 49 62 3.0 5.0 0.00 0.00 0.00 77 1014.8
20260507052030 49 69 3.0 6.0 0.00 0.00 0.00 78 1014.6
20260507051029 49 50 4.0 7.0 0.00 0.00 0.00 78 1014.6
20260507050030 48 40 6.0 11.0 0.00 0.00 0.00 78 1014.5
20260507045029 48 35 7.0 11.0 0.00 0.00 0.00 79 1014.4
20260507044030 48 34 7.0 11.0 0.00 0.00 0.00 79 1014.4
20260507043029 48 37 6.0 11.0 0.00 0.00 0.00 79 1014.4
20260507042030 48 26 6.0 12.0 0.00 0.00 0.00 80 1014.3
20260507041030 48 16 6.0 10.0 0.00 0.00 0.00 81 1014.1
20260507040029 48 22 5.0 10.0 0.00 0.00 0.00 81 1014.0
20260507035030 47 18 6.0 11.0 0.00 0.00 0.00 82 1014.1
20260507034029 47 29 6.0 9.0 0.00 0.00 0.00 82 1014.0
20260507033030 47 44 5.0 9.0 0.00 0.00 0.00 82 1014.0
20260507032030 47 53 4.0 5.0 0.00 0.00 0.00 81 1013.9
20260507031029 47 57 4.0 6.0 0.00 0.00 0.00 82 1013.9
20260507030030 47 73 3.0 4.0 0.00 0.00 0.00 82 1013.9